NOAA 16 DEB, 41410

Orbit data source: Space-Track

NOAA 16 DEB, 41410 is space debris in SSO originally from a launch on Thu, 21 Sep 2000 UTC launched from the Air Force Western Test Range (AFWTR). Debris objects in space refer to the collection of defunct objects orbiting the Earth. Examples of debris include non-operational satellites, rocket bodies, and fragments generated from explosions, collisions, or faulty payload assembly.

Loading next visibility...
Identifier
41410, 2000-055KP
Orbit
SSO
Country
Flag of USUS
Related business
Manufacturer
Unknown
Mission
Spacecraft
Bus & Motor
Unknown
Mass
Unknown
Launch date (UTC)
2000-09-21 (26 years ago)
Launch vehicle
Unknown
Launch site
Air Force Western Test Range (AFWTR)
Object type
Payload
Rocket body
Debris
Shape & HBR
Unknown shape, 0.1 m
Radar Cross Section
Medium (>0.1 m² and <1 m²)

Expand to show TLE details & history
Last TLE update: 13 hours ago

TLE from 13 hours ago
0 NOAA 16 DEB
1 41410U 00055KP  26249.35413591  .00001431  00000-0  67980-3 0  9996
2 41410  98.6960 289.5266 0019727 333.6150  26.4021 14.20937838543388
Epoch: 2026-09-06T08:29Z
TLE epoch observation values (Epoch: 2026-09-06T08:29:57.342Z)
Latitude
-0.00002°
Longitude
176.58722°
Altitude
812.38 km
Speed
7.454 km/s
True Right ascension
19h 18m 06s
True Declination
0° 00' 00"
Sunlit
Object was in full shadow at epoch
Visualization orbit readout
Latitude
Unknown
Longitude
Unknown
Altitude
Unknown
Speed
Unknown
Apparent Right ascension
Unknown
Apparent Declination
Unknown
Sunlit
N/A
Visualization observer readout
Local Sidereal Time
13:33:26
Azimuth
Unknown
Elevation
Unknown
Doppler factor
Unknown
Orbital elements
Apogee altitude
833.538 km
Perigee altitude
805.141 km
Semi-major axis
7,197.477 km
Eccentricity
0.00197
Inclination
98.696°
RAAN
289.5266°
Arg. of periapsis
333.615°
True anomaly
26.50284°
Mean anomaly
26.4021°
Eccentric anomaly
26.45245°
Mean motion
3.55445 °/min
Orbital period
101.28 mins
BSTAR
0.0006798
Loading maneuver chart data...
Computing Atmospheric mass density...
Loading historical data...
Loading historical data...
Loading historical data...
Loading historical data...
Loading historical data...
Loading historical data...
Loading historical data...

Documentation

Showing up to 5 results
|